User: anonymous   Login
Location: La Vergne
(36.0160°N, 86.5820°W)
Time: 18:11:27
(UTC-06:00)
Language:

Cosmos 1703 Rocket - Orbit

View from above orbital plane
View from above orbital plane
View from above satellite
View from above satellite

Ground track
Ground track

The orbit data is extracted from the following two-line orbital elements,

1 16263U 85108B   18021.84809087 +.00000077 +00000-0 +64832-5 0  9998
2 16263 082.5037 269.1816 0019902 352.5722 054.2466 14.83018938715718
Epoch (UTC): 21 January 2018 20:21:15
Eccentricity: 0.0019902
inclination: 82.5037°
perigee height: 606 km
apogee height: 634 km
right ascension of ascending node: 269.1816°
argument of perigee: 352.5722°
revolutions per day: 14.83018938
mean anomaly at epoch: 54.2466°
orbit number at epoch: 71571

The dashed part of the orbit path shows where the satellite is in the earth's shadow,  

DLR